EZY73BG EGGP-EGNT

Flight info

Callsign EZY73BG
Flight time 0h 28m
Altitude 25000
Route POL
Aircraft A320/M-SDE3FGHIRWY/LB1

Departure

Time 2026-05-04 18:08
Airport Liverpool John Lennon Airport (EGGP)

Arrival

Time 2026-05-04 18:36
Airport Newcastle International Airport (EGNT)
Time Latitude Longitude Altitude Speed Heading
2026-05-04 17:45 53.33662 -2.85586 89 ft 0 kts 356°
2026-05-04 17:57 53.33657 -2.85586 86 ft 4 kts 356°
2026-05-04 17:57 53.33631 -2.85585 88 ft 4 kts 17°
2026-05-04 17:58 53.33612 -2.85608 86 ft 4 kts 70°
2026-05-04 17:58 53.33608 -2.85634 89 ft 1 kts 83°
2026-05-04 17:58 53.33608 -2.85637 86 ft 0 kts 83°
2026-05-04 18:02 53.33610 -2.85606 85 ft 9 kts 83°
2026-05-04 18:02 53.33593 -2.85517 88 ft 8 kts 152°
2026-05-04 18:03 53.33527 -2.85504 85 ft 11 kts 172°
2026-05-04 18:03 53.33509 -2.85408 85 ft 11 kts 83°
2026-05-04 18:03 53.33518 -2.85233 84 ft 19 kts 86°
2026-05-04 18:03 53.33527 -2.85003 87 ft 19 kts 86°
2026-05-04 18:04 53.33538 -2.84778 84 ft 21 kts 85°
2026-05-04 18:04 53.33551 -2.84497 78 ft 26 kts 85°
2026-05-04 18:04 53.33578 -2.83919 70 ft 25 kts 85°
2026-05-04 18:05 53.33590 -2.83654 74 ft 19 kts 86°
2026-05-04 18:05 53.33598 -2.83474 66 ft 11 kts 85°
2026-05-04 18:05 53.33592 -2.83365 66 ft 8 kts 116°
2026-05-04 18:05 53.33559 -2.83313 70 ft 5 kts 150°
2026-05-04 18:06 53.33538 -2.83301 74 ft 1 kts 162°
2026-05-04 18:06 53.33510 -2.83294 77 ft 8 kts 173°
2026-05-04 18:06 53.33446 -2.83313 84 ft 9 kts 230°
2026-05-04 18:07 53.33437 -2.83388 83 ft 5 kts 265°
2026-05-04 18:07 53.33430 -2.83529 79 ft 33 kts 265°
2026-05-04 18:07 53.33392 -2.84350 79 ft 104 kts 265°
2026-05-04 18:07 53.33322 -2.85879 120 ft 153 kts 266°
2026-05-04 18:08 53.33234 -2.87612 849 ft 149 kts 269°
2026-05-04 18:08 53.33136 -2.89382 1491 ft 158 kts 270°
2026-05-04 18:08 53.33050 -2.91301 1945 ft 175 kts 276°
2026-05-04 18:08 53.33388 -2.93313 2312 ft 189 kts 303°
2026-05-04 18:09 53.35718 -2.95373 3387 ft 211 kts
2026-05-04 18:09 53.38855 -2.93854 4352 ft 257 kts 17°
2026-05-04 18:10 53.40549 -2.92893 5180 ft 264 kts 17°
2026-05-04 18:10 53.42332 -2.91996 5790 ft 270 kts
2026-05-04 18:10 53.44154 -2.91209 6215 ft 274 kts 24°
2026-05-04 18:10 53.45787 -2.89531 7160 ft 277 kts 32°
2026-05-04 18:11 53.47311 -2.87511 8032 ft 283 kts 44°
2026-05-04 18:11 53.48512 -2.84854 8874 ft 291 kts 57°
2026-05-04 18:11 53.49562 -2.81887 9063 ft 296 kts 58°
2026-05-04 18:11 53.50601 -2.78912 9065 ft 294 kts 58°
2026-05-04 18:12 53.51632 -2.75942 9066 ft 294 kts 58°
2026-05-04 18:12 53.52667 -2.72966 9068 ft 295 kts 58°
2026-05-04 18:12 53.53705 -2.69998 9185 ft 297 kts 58°
2026-05-04 18:12 53.54758 -2.66994 10064 ft 299 kts 58°
2026-05-04 18:13 53.55851 -2.63882 10493 ft 320 kts 58°
2026-05-04 18:13 53.57011 -2.60580 10764 ft 344 kts 58°
2026-05-04 18:13 53.59563 -2.53275 11701 ft 371 kts 59°
2026-05-04 18:14 53.60876 -2.49496 12432 ft 376 kts 59°
2026-05-04 18:14 53.62199 -2.45674 13193 ft 380 kts 59°
2026-05-04 18:14 53.63537 -2.41810 13916 ft 384 kts 59°
2026-05-04 18:15 53.66255 -2.33955 15210 ft 391 kts 59°
2026-05-04 18:15 53.69024 -2.25954 16480 ft 398 kts 59°
2026-05-04 18:15 53.69949 -2.23270 16872 ft 401 kts 60°
2026-05-04 18:16 53.71349 -2.19194 17518 ft 403 kts 60°
2026-05-04 18:16 53.72917 -2.15254 18111 ft 406 kts 50°
2026-05-04 18:16 53.74898 -2.11836 18689 ft 408 kts 39°
2026-05-04 18:17 53.79826 -2.07110 19737 ft 411 kts 18°
2026-05-04 18:17 53.82538 -2.05523 20239 ft 414 kts 18°
2026-05-04 18:17 53.88009 -2.02297 20997 ft 417 kts 19°
2026-05-04 18:18 53.90778 -2.00652 21049 ft 429 kts 19°
2026-05-04 18:18 53.93640 -1.98948 21047 ft 441 kts 19°
2026-05-04 18:18 53.96545 -1.97212 20812 ft 442 kts 19°
2026-05-04 18:18 53.99438 -1.95475 20511 ft 439 kts 18°
2026-05-04 18:19 54.05012 -1.92130 19899 ft 412 kts 18°
2026-05-04 18:19 54.07677 -1.90534 19611 ft 401 kts 18°
2026-05-04 18:19 54.10236 -1.88998 19320 ft 390 kts 18°
2026-05-04 18:20 54.12766 -1.87480 19019 ft 381 kts 17°
2026-05-04 18:20 54.15292 -1.86329 18741 ft 371 kts 10°
2026-05-04 18:20 54.17809 -1.85552 18458 ft 364 kts
2026-05-04 18:20 54.20270 -1.84789 18154 ft 357 kts
2026-05-04 18:21 54.22701 -1.84027 17733 ft 353 kts
2026-05-04 18:21 54.25104 -1.83270 17316 ft 350 kts
2026-05-04 18:21 54.27488 -1.82520 16895 ft 346 kts
2026-05-04 18:21 54.29851 -1.81776 16478 ft 344 kts
2026-05-04 18:22 54.32195 -1.81040 16065 ft 342 kts
2026-05-04 18:22 54.34524 -1.80307 15671 ft 340 kts
2026-05-04 18:22 54.36847 -1.79570 15266 ft 338 kts
2026-05-04 18:22 54.39155 -1.78842 14873 ft 336 kts
2026-05-04 18:23 54.41422 -1.78133 14489 ft 335 kts
2026-05-04 18:23 54.43709 -1.77416 14100 ft 333 kts
2026-05-04 18:23 54.45984 -1.76692 13710 ft 332 kts
2026-05-04 18:23 54.48248 -1.75970 13283 ft 330 kts
2026-05-04 18:24 54.50502 -1.75251 12868 ft 329 kts
2026-05-04 18:24 54.52744 -1.74539 12451 ft 327 kts
2026-05-04 18:24 54.54977 -1.73834 12021 ft 325 kts
2026-05-04 18:24 54.57202 -1.73131 11525 ft 326 kts
2026-05-04 18:25 54.59436 -1.72421 11000 ft 327 kts
2026-05-04 18:25 54.61676 -1.71709 10484 ft 327 kts
2026-05-04 18:25 54.63903 -1.70995 10193 ft 320 kts
2026-05-04 18:25 54.66022 -1.70019 10059 ft 312 kts 22°
2026-05-04 18:26 54.67864 -1.68160 10014 ft 299 kts 30°
2026-05-04 18:26 54.69580 -1.66231 9920 ft 292 kts 30°
2026-05-04 18:26 54.71235 -1.64348 9716 ft 286 kts 30°
2026-05-04 18:26 54.72915 -1.62438 9399 ft 284 kts 30°
2026-05-04 18:27 54.74545 -1.60588 9010 ft 284 kts 30°
2026-05-04 18:27 54.76191 -1.58711 8619 ft 283 kts 30°
2026-05-04 18:27 54.77831 -1.56839 8231 ft 282 kts 30°
2026-05-04 18:27 54.79468 -1.54980 7846 ft 281 kts 30°
2026-05-04 18:28 54.81099 -1.53135 7468 ft 279 kts 30°
2026-05-04 18:28 54.82723 -1.51306 7090 ft 278 kts 30°
2026-05-04 18:28 54.84338 -1.49492 6719 ft 276 kts 30°
2026-05-04 18:28 54.85949 -1.47691 6342 ft 275 kts 31°
2026-05-04 18:29 54.87554 -1.45903 5944 ft 273 kts 30°
2026-05-04 18:29 54.89142 -1.44132 5539 ft 268 kts 30°
2026-05-04 18:29 54.90674 -1.42409 5163 ft 258 kts 30°
2026-05-04 18:29 54.92163 -1.40723 4782 ft 254 kts 30°
2026-05-04 18:30 54.95085 -1.37401 4019 ft 245 kts 30°
2026-05-04 18:30 54.96518 -1.36135 3957 ft 221 kts 14°
2026-05-04 18:30 54.98011 -1.35652 3844 ft 217 kts 356°
2026-05-04 18:31 54.99506 -1.35825 3717 ft 214 kts 351°
2026-05-04 18:31 55.00977 -1.36184 3645 ft 213 kts 344°
2026-05-04 18:31 55.02399 -1.36864 3599 ft 211 kts 341°
2026-05-04 18:31 55.03800 -1.37610 3598 ft 211 kts 340°
2026-05-04 18:32 55.05205 -1.38367 3553 ft 211 kts 340°
2026-05-04 18:32 55.06609 -1.39122 3480 ft 211 kts 340°
2026-05-04 18:32 55.08008 -1.39884 3404 ft 210 kts 339°
2026-05-04 18:32 55.09248 -1.41147 3288 ft 207 kts 313°
2026-05-04 18:33 55.09937 -1.43303 3147 ft 206 kts 283°
2026-05-04 18:33 55.09891 -1.45795 2941 ft 210 kts 253°
2026-05-04 18:33 55.09304 -1.48147 2679 ft 211 kts 248°
2026-05-04 18:33 55.08683 -1.50462 2397 ft 209 kts 248°
2026-05-04 18:34 55.08104 -1.52646 2133 ft 194 kts 248°
2026-05-04 18:34 55.07547 -1.54760 1871 ft 191 kts 249°
2026-05-04 18:34 55.06994 -1.56860 1603 ft 189 kts 248°
2026-05-04 18:34 55.06450 -1.58920 1369 ft 180 kts 248°
2026-05-04 18:35 55.05952 -1.60806 1149 ft 160 kts 248°
2026-05-04 18:35 55.05508 -1.62484 912 ft 146 kts 247°
2026-05-04 18:35 55.05100 -1.64029 712 ft 136 kts 248°
2026-05-04 18:35 55.04708 -1.65512 535 ft 134 kts 247°
2026-05-04 18:36 55.04322 -1.66965 358 ft 131 kts 247°
2026-05-04 18:36 55.03952 -1.68370 248 ft 117 kts 246°
2026-05-04 18:36 55.03682 -1.69396 256 ft 64 kts 245°
2026-05-04 18:36 55.03587 -1.69751 258 ft 21 kts 246°
2026-05-04 18:37 55.03585 -1.69985 259 ft 17 kts 274°
2026-05-04 18:37 55.03593 -1.70186 260 ft 17 kts 274°
2026-05-04 18:37 55.03600 -1.70350 260 ft 11 kts 274°
2026-05-04 18:37 55.03597 -1.70478 261 ft 10 kts 264°
2026-05-04 18:38 55.03591 -1.70598 262 ft 9 kts 267°
2026-05-04 18:38 55.03593 -1.70690 262 ft 7 kts 273°
2026-05-04 18:38 55.03596 -1.70762 262 ft 5 kts 274°
2026-05-04 18:38 55.03604 -1.70835 262 ft 5 kts 300°
2026-05-04 18:39 55.03636 -1.70851 261 ft 3 kts
2026-05-04 18:39 55.03662 -1.70847 260 ft 4 kts
2026-05-04 18:39 55.03671 -1.70845 260 ft 2 kts
2026-05-04 18:39 55.03672 -1.70845 260 ft 0 kts